This is the latest recevied weather packets stored in our database for station/object N4DWK. If no packets are shown the sender has not sent any weather packets the latest 10 day(s).
| Time | Temp. | Humidity | Pressure | Rain* | Wind** | Luminosity | Snow |
|---|---|---|---|---|---|---|---|
| 1778097607 | 20° C | 85% | 1009.8 hPa | 0.25 mm | - | 77 W/m² | - |
| 1778097306 | 20° C | 86% | 1009.7 hPa | 0.25 mm | - | 84 W/m² | - |
| 1778097006 | 20° C | 86% | 1009.2 hPa | 0.25 mm | - | 84 W/m² | - |
| 1778096706 | 20° C | 86% | 1009.3 hPa | 0.25 mm | - | 72 W/m² | - |
| 1778096406 | 19.44° C | 87% | 1009 hPa | 0.25 mm | - | 60 W/m² | - |
| 1778096106 | 19.44° C | 87% | 1009.1 hPa | 0.25 mm | - | 62 W/m² | - |
| 1778095806 | 19.44° C | 87% | 1009.1 hPa | 0.25 mm | - | 79 W/m² | - |
| 1778095507 | 19.44° C | 88% | 1009.3 hPa | 0.25 mm | - | 91 W/m² | - |
| 1778095206 | 18.89° C | 88% | 1009.5 hPa | 0.25 mm | - | 86 W/m² | - |
| 1778094906 | 18.89° C | 89% | 1009.7 hPa | 0.25 mm | - | 81 W/m² | - |
| 1778094606 | 18.89° C | 89% | 1009.9 hPa | 0.25 mm | - | 84 W/m² | - |
| 1778094306 | 18.89° C | 89% | 1010 hPa | 0.25 mm | - | 83 W/m² | - |
| 1778094007 | 18.89° C | 90% | 1010.3 hPa | 0 mm | - | 76 W/m² | - |
| 1778093706 | 18.89° C | 90% | 1010.4 hPa | 0 mm | - | 65 W/m² | - |
| 1778093406 | 18.33° C | 90% | 1010.2 hPa | 0 mm | - | 63 W/m² | - |
| 1778093106 | 18.33° C | 90% | 1010.2 hPa | 0 mm | - | 65 W/m² | - |
| 1778092806 | 18.33° C | 90% | 1010.2 hPa | 0 mm | - | 62 W/m² | - |
| 1778092506 | 18.33° C | 89% | 1010.4 hPa | 0 mm | - | 60 W/m² | - |
| 1778092205 | 18.33° C | 89% | 1010.4 hPa | 0 mm | - | 53 W/m² | - |
| 1778091906 | 18.33° C | 89% | 1010.4 hPa | 0 mm | - | 44 W/m² | - |
| 1778091606 | 18.89° C | 89% | 1010.6 hPa | 0 mm | - | 42 W/m² | - |
| 1778091306 | 18.89° C | 89% | 1010.8 hPa | 0 mm | - | 46 W/m² | - |
| 1778091006 | 18.89° C | 89% | 1010.9 hPa | 0 mm | - | 53 W/m² | - |
| 1778090706 | 18.89° C | 89% | 1011 hPa | 0 mm | - | 76 W/m² | - |
| 1778090405 | 18.89° C | 88% | 1011 hPa | 0 mm | - | 86 W/m² | - |
* Rain latest hour (hover to see other rain measurements)
** Current wind speed in m/s (hover to see current wind gust speed)